Istanbul, Turkey

12:54 AM +03 on April 22, 2018 (GMT +0300)
Ataturk

Weather History for LTBA - October, 2010

Change the Weather History Date:

Thursday, October 21, 2010

  Actual Average Record
Temperature  
Mean Temperature 65 °F -  
Max Temperature 73 °F 60 °F 73 °F (2003)
Min Temperature 55 °F 49 °F 44 °F (2005)
Growing Degree Days 15 (Base 50)    
Moisture  
Dew Point 57 °F    
Average Humidity 71    
Maximum Humidity 83    
Minimum Humidity 53    
Precipitation  
Precipitation 0.12 in - - ()
Sea Level Pressure  
Sea Level Pressure 30.03 in    
Wind  
Wind Speed 13 mph ()    
Max Wind Speed 21 mph    
Max Gust Speed 32 mph    
Visibility 6.0 miles    
Events Rain    
Averages and records for this station are not official NWS values.
T = Trace of Precipitation, MM = Missing Value Source: Averaged Metar Reports

Daily Weather History Graph

Daily Weather History Graph

Search for Another Location

Airport or City:

Astronomy

Oct. 21, 2010 Rise Set
Actual Time 7:22 AM EEST 6:15 PM EEST
Civil Twilight 6:54 AM EEST 6:43 PM EEST
Nautical Twilight 6:22 AM EEST 7:15 PM EEST
Astronomical Twilight 5:50 AM EEST 7:47 PM EEST
Moon 5:07 PM EEST 5:42 AM EEST
Length of Visible Light 11h 49m
Length of Day
10h 53m
Waxing Gibbous, 97% of the Moon is Illuminated
Oct 21
Waxing Gibbous
Oct 23
Full
Oct 30
Last Quarter
Nov 6
New
Nov 13
First Quarter

Hourly Weather History & Observations

Time (EEST) Temp. Dew Point Humidity Pressure Visibility Wind Dir Wind Speed Gust Speed Precip Events Conditions
12:20 AM 66.2 °F 57.2 °F 73% 29.86 in 6.2 mi SSW 15.0 mph - N/A   Scattered Clouds
12:50 AM 66.2 °F 57.2 °F 73% 29.89 in 6.2 mi SSW 13.8 mph 25.3 mph N/A   Scattered Clouds
1:20 AM 66.2 °F 59.0 °F 78% 29.89 in 6.2 mi SSW 13.8 mph - N/A   Scattered Clouds
1:50 AM 66.2 °F 57.2 °F 73% 29.89 in 6.2 mi SSW 17.3 mph - N/A   Scattered Clouds
2:20 AM 66.2 °F 59.0 °F 78% 29.89 in 6.2 mi SSW 18.4 mph - N/A   Scattered Clouds
3:00 AM 66 °F 58 °F 70% 29.91 in 6 mi SSW 18.4 mph - -   Partly Cloudy
3:20 AM 66.2 °F 59.0 °F 78% 29.92 in 6.2 mi SSW 15.0 mph - N/A   Scattered Clouds
3:50 AM 66.2 °F 59.0 °F 78% 29.92 in 6.2 mi South 13.8 mph - N/A   Scattered Clouds
4:20 AM 66.2 °F 59.0 °F 78% 29.92 in 6.2 mi SSW 13.8 mph - N/A   Scattered Clouds
4:50 AM 66.2 °F 59.0 °F 78% 29.92 in 6.2 mi SSW 13.8 mph - N/A   Scattered Clouds
5:20 AM 66.2 °F 59.0 °F 78% 29.92 in 6.2 mi SSW 15.0 mph - N/A   Scattered Clouds
5:50 AM 66.2 °F 59.0 °F 78% 29.92 in 6.2 mi SSW 13.8 mph - N/A   Scattered Clouds
6:20 AM 64.4 °F 59.0 °F 83% 29.95 in 6.2 mi South 9.2 mph - N/A   Scattered Clouds
6:50 AM 64.4 °F 59.0 °F 83% 29.95 in 6.2 mi South 11.5 mph - N/A   Scattered Clouds
7:20 AM 64.4 °F 59.0 °F 83% 29.95 in 6.2 mi SSW 12.7 mph - N/A   Scattered Clouds
7:50 AM 66.2 °F 59.0 °F 78% 29.95 in 6.2 mi SSW 11.5 mph - N/A   Scattered Clouds
8:20 AM 66.2 °F 60.8 °F 83% 29.98 in 6.2 mi SSW 10.4 mph - N/A   Scattered Clouds
8:50 AM 66.2 °F 60.8 °F 83% 29.98 in 6.2 mi SSW 12.7 mph - N/A   Scattered Clouds
9:00 AM 67 °F 60 °F 72% 29.99 in 6 mi SSW 12.7 mph - -   Partly Cloudy
9:20 AM 68.0 °F 59.0 °F 73% 29.98 in 6.2 mi SSW 13.8 mph - N/A   Scattered Clouds
9:50 AM 68.0 °F 59.0 °F 73% 30.01 in 6.2 mi SSW 13.8 mph - N/A   Scattered Clouds
10:20 AM 68.0 °F 59.0 °F 73% 30.01 in 6.2 mi SSW 12.7 mph - N/A   Scattered Clouds
10:50 AM 69.8 °F 59.0 °F 68% 30.01 in 6.2 mi South 13.8 mph - N/A   Scattered Clouds
11:20 AM 69.8 °F 59.0 °F 68% 30.01 in 6.2 mi South 15.0 mph - N/A   Scattered Clouds
11:50 AM 69.8 °F 60.8 °F 73% 30.04 in 6.2 mi SSW 12.7 mph - N/A   Partly Cloudy
12:20 PM 69.8 °F 60.8 °F 73% 30.04 in 6.2 mi SSW 12.7 mph - N/A   Scattered Clouds
12:50 PM 69.8 °F 60.8 °F 73% 30.04 in 6.2 mi WSW 10.4 mph - N/A   Partly Cloudy
1:20 PM 69.8 °F 60.8 °F 73% 30.04 in 6.2 mi WSW 10.4 mph - N/A   Scattered Clouds
1:50 PM 71.6 °F 59.0 °F 64% 30.04 in 6.2 mi WSW 9.2 mph - N/A   Scattered Clouds
2:20 PM 71.6 °F 60.8 °F 69% 30.04 in 6.2 mi WSW 9.2 mph - N/A   Scattered Clouds
2:50 PM 71.6 °F 59.0 °F 64% 30.04 in 6.2 mi WSW 10.4 mph - N/A   Scattered Clouds
3:00 PM 72 °F 58 °F 53% 30.05 in 6 mi WSW 10.4 mph - -   Partly Cloudy
3:20 PM 71.6 °F 55.4 °F 57% 30.04 in 6.2 mi West 9.2 mph - N/A   Scattered Clouds
3:50 PM 73.4 °F 55.4 °F 53% 30.04 in 6.2 mi WSW 9.2 mph - N/A   Scattered Clouds
4:20 PM 71.6 °F 55.4 °F 57% 30.04 in 6.2 mi WSW 6.9 mph - N/A   Scattered Clouds
4:50 PM 71.6 °F 57.2 °F 60% 30.06 in 6.2 mi NNW 12.7 mph - N/A   Scattered Clouds
5:20 PM 68.0 °F 57.2 °F 68% 30.06 in 6.2 mi North 13.8 mph - N/A   Mostly Cloudy
5:50 PM 66.2 °F 53.6 °F 64% 30.06 in 6.2 mi North 17.3 mph - N/A   Scattered Clouds
6:20 PM 64.4 °F 55.4 °F 73% 30.09 in 6.2 mi North 17.3 mph - N/A   Mostly Cloudy
6:50 PM 62.6 °F 53.6 °F 72% 30.09 in 6.2 mi North 17.3 mph - N/A   Mostly Cloudy
7:20 PM 64.4 °F 51.8 °F 64% 30.12 in 6.2 mi North 15.0 mph - N/A   Scattered Clouds
7:50 PM 62.6 °F 50.0 °F 63% 30.15 in 6.2 mi North 18.4 mph - N/A   Scattered Clouds
8:20 PM 62.6 °F 51.8 °F 68% 30.15 in 6.2 mi North 18.4 mph - N/A   Scattered Clouds
8:50 PM 62.6 °F 53.6 °F 72% 30.18 in 6.2 mi North 18.4 mph - N/A   Mostly Cloudy
9:00 PM 62 °F 53 °F 65% 30.19 in 6 mi North 18.4 mph - -   Partly Cloudy
9:20 PM 60.8 °F 50.0 °F 68% 30.18 in 6.2 mi North 17.3 mph - N/A   Mostly Cloudy
9:50 PM 60.8 °F 50.0 °F 68% 30.21 in 4.3 mi North 18.4 mph - N/A Rain Light Rain Showers
10:20 PM 57.2 °F 48.2 °F 72% 30.21 in 4.3 mi North 20.7 mph - N/A Rain Light Rain Showers
10:50 PM 57.2 °F 48.2 °F 72% 30.24 in 4.3 mi North 19.6 mph 31.1 mph N/A Rain Light Rain Showers
11:20 PM 57.2 °F 46.4 °F 67% 30.24 in 4.3 mi North 20.7 mph 32.2 mph N/A Rain Light Rain Showers
11:50 PM 55.4 °F 44.6 °F 67% 30.27 in 4.3 mi North 20.7 mph - N/A Rain Light Rain Showers